Location: Unspecified
(0.0000°N, 0.0000°E)
Time: 05:27:46
(UTC+00:00)

A-11 Canister half - Pass Details

Date: 23 April 2026
Orbit: 1523 x 1685 km, 47.3° (Epoch: 13 May)

Event Time Altitude Azimuth Distance (km) Brightness Sun altitude
Rises 17:12:25 0° 183° (S) 4,690 11.4 11.2°
Reaches altitude 10° 17:19:16 10° 148° (SSE) 3,738 10.7 9.5°
Maximum altitude 17:21:20 11° 135° (SE) 3,685 10.5 9.0°
Drops below altitude 10° 17:23:24 10° 122° (ESE) 3,762 10.5 8.5°
Sets 17:30:19 0° 88° (E) 4,791 11.0 6.8°
